| time (UTC) | temp F | wind direction | speed knots | gust knots | rain 1hr in | rain 24hr in | rain mn in | humidity % | barometer mb |
| 20260510202022 | 81 | 200 | 1.7 | 7.8 | 0.00 | 0.06 | 0.01 | 77 | 1013.2 |
| 20260510201518 | 81 | 325 | 1.7 | 7.8 | 0.00 | 0.06 | 0.01 | 79 | 1013.3 |
| 20260510201023 | 80 | 275 | 0.9 | 4.3 | 0.00 | 0.06 | 0.01 | 79 | 1013.3 |
| 20260510200518 | 80 | 251 | 0.0 | 3.5 | 0.00 | 0.06 | 0.01 | 79 | 1013.3 |
| 20260510200019 | 80 | 269 | 0.9 | 4.3 | 0.00 | 0.06 | 0.01 | 78 | 1013.4 |
| 20260510195517 | 80 | 209 | 0.9 | 6.1 | 0.00 | 0.06 | 0.01 | 79 | 1013.3 |
| 20260510195017 | 81 | 232 | 1.7 | 6.1 | 0.00 | 0.06 | 0.01 | 77 | 1013.3 |
| 20260510194517 | 81 | 219 | 0.0 | 2.6 | 0.00 | 0.06 | 0.01 | 75 | 1013.2 |
| 20260510194017 | 81 | 212 | 0.9 | 4.3 | 0.00 | 0.06 | 0.01 | 75 | 1013.3 |
| 20260510193517 | 81 | 215 | 1.7 | 4.3 | 0.00 | 0.06 | 0.01 | 74 | 1013.2 |
| 20260510193019 | 82 | 202 | 1.7 | 7.0 | 0.00 | 0.06 | 0.01 | 75 | 1013.2 |
| 20260510192516 | 82 | 149 | 3.5 | 7.0 | 0.00 | 0.06 | 0.01 | 74 | 1013.2 |
| 20260510192016 | 82 | 159 | 2.6 | 6.1 | 0.00 | 0.06 | 0.01 | 73 | 1013.2 |
| 20260510191516 | 82 | 252 | 2.6 | 6.1 | 0.00 | 0.06 | 0.01 | 73 | 1013.3 |
| 20260510191015 | 82 | 271 | 1.7 | 4.3 | 0.00 | 0.06 | 0.01 | 74 | 1013.3 |
| 20260510190516 | 82 | 111 | 0.9 | 4.3 | 0.00 | 0.06 | 0.01 | 72 | 1013.4 |
| 20260510190016 | 82 | 165 | 0.9 | 5.2 | 0.00 | 0.06 | 0.01 | 72 | 1013.4 |
| 20260510185513 | 82 | 156 | 1.7 | 5.2 | 0.00 | 0.06 | 0.01 | 70 | 1013.5 |
| 20260510185013 | 82 | 182 | 0.9 | 2.6 | 0.00 | 0.06 | 0.01 | 72 | 1013.6 |
| 20260510184511 | 82 | 207 | 0.9 | 4.3 | 0.00 | 0.06 | 0.01 | 72 | 1013.8 |
| 20260510184011 | 82 | 146 | 0.9 | 4.3 | 0.00 | 0.06 | 0.01 | 70 | 1013.9 |
| 20260510183510 | 81 | 206 | 1.7 | 3.5 | 0.00 | 0.06 | 0.01 | 71 | 1013.9 |
| 20260510183010 | 81 | 93 | 1.7 | 5.2 | 0.00 | 0.06 | 0.01 | 70 | 1014.0 |
| 20260510182508 | 81 | 190 | 1.7 | 4.3 | 0.00 | 0.06 | 0.01 | 72 | 1014.1 |
| 20260510182009 | 81 | 240 | 0.9 | 2.6 | 0.00 | 0.06 | 0.01 | 71 | 1014.1 |
| 20260510181509 | 81 | 257 | 0.9 | 7.0 | 0.00 | 0.06 | 0.01 | 72 | 1014.2 |
| 20260510181008 | 81 | 355 | 3.5 | 7.0 | 0.00 | 0.06 | 0.01 | 71 | 1014.3 |
| 20260510180506 | 81 | 330 | 0.9 | 5.2 | 0.00 | 0.06 | 0.01 | 73 | 1014.3 |
| 20260510180005 | 80 | 165 | 0.0 | 5.2 | 0.00 | 0.06 | 0.01 | 71 | 1014.4 |
| 20260510175505 | 80 | 188 | 0.9 | 4.3 | 0.00 | 0.06 | 0.01 | 72 | 1014.4 |
| 20260510175004 | 80 | 51 | 0.9 | 4.3 | 0.00 | 0.06 | 0.01 | 74 | 1014.4 |
| 20260510174502 | 79 | 235 | 0.9 | 3.5 | 0.00 | 0.06 | 0.01 | 74 | 1014.5 |
| 20260510174004 | 79 | 204 | 0.9 | 3.5 | 0.00 | 0.06 | 0.01 | 72 | 1014.5 |
| 20260510173501 | 79 | 5 | 0.0 | 5.2 | 0.00 | 0.06 | 0.01 | 74 | 1014.6 |
| 20260510173001 | 78 | 29 | 2.6 | 5.2 | 0.00 | 0.06 | 0.01 | 75 | 1014.6 |
| 20260510172501 | 79 | 340 | 1.7 | 4.3 | 0.00 | 0.06 | 0.01 | 74 | 1014.7 |
| 20260510172100 | 79 | 350 | 1.7 | 4.3 | 0.00 | 0.06 | 0.01 | 73 | 1014.7 |
| 20260510171609 | 79 | 19 | 1.7 | 3.5 | 0.00 | 0.06 | 0.01 | 73 | 1014.7 |
| 20260510171104 | 79 | 331 | 0.9 | 3.5 | 0.00 | 0.06 | 0.01 | 75 | 1014.8 |
| 20260510170600 | 79 | 164 | 0.0 | 3.5 | 0.00 | 0.06 | 0.01 | 74 | 1014.8 |
| 20260510170058 | 79 | 78 | 1.7 | 5.2 | 0.00 | 0.06 | 0.01 | 75 | 1014.8 |
| 20260510165557 | 79 | 61 | 2.6 | 5.2 | 0.00 | 0.23 | 0.01 | 76 | 1014.8 |
| 20260510165056 | 79 | 73 | 0.9 | 4.3 | 0.00 | 0.23 | 0.01 | 77 | 1014.8 |
| 20260510164557 | 78 | 78 | 2.6 | 4.3 | 0.00 | 0.23 | 0.01 | 76 | 1014.8 |
| 20260510164054 | 78 | 306 | 0.0 | 3.5 | 0.00 | 0.23 | 0.01 | 75 | 1014.8 |
| 20260510163554 | 78 | 282 | 0.9 | 3.5 | 0.00 | 0.23 | 0.01 | 74 | 1014.8 |
| 20260510163058 | 78 | 17 | 1.7 | 3.5 | 0.00 | 0.23 | 0.01 | 76 | 1014.8 |
| 20260510162553 | 78 | 161 | 0.0 | 3.5 | 0.00 | 0.23 | 0.01 | 75 | 1014.8 |
| 20260510162052 | 78 | 108 | 0.9 | 3.5 | 0.00 | 0.23 | 0.01 | 76 | 1014.7 |
| 20260510161551 | 77 | 65 | 0.9 | 5.2 | 0.00 | 0.23 | 0.01 | 79 | 1014.8 |
| 20260510161050 | 77 | 63 | 3.5 | 5.2 | 0.00 | 0.23 | 0.01 | 79 | 1014.8 |
| 20260510160549 | 77 | 324 | 0.9 | 5.2 | 0.00 | 0.23 | 0.01 | 80 | 1014.8 |
| 20260510160048 | 77 | 5 | 0.0 | 3.5 | 0.00 | 0.23 | 0.01 | 83 | 1014.7 |
| 20260510155550 | 76 | 94 | 1.7 | 3.5 | 0.00 | 0.41 | 0.01 | 82 | 1014.7 |
| 20260510155045 | 76 | 35 | 0.9 | 3.5 | 0.00 | 0.41 | 0.01 | 82 | 1014.6 |
| 20260510154551 | 76 | 327 | 0.9 | 3.5 | 0.00 | 0.41 | 0.01 | 84 | 1014.6 |
| 20260510154045 | 75 | 33 | 0.0 | 5.2 | 0.00 | 0.41 | 0.01 | 84 | 1014.6 |
| 20260510153543 | 76 | 73 | 3.5 | 5.2 | 0.00 | 0.41 | 0.01 | 82 | 1014.7 |
| 20260510153042 | 75 | 28 | 0.9 | 7.0 | 0.00 | 0.41 | 0.01 | 83 | 1014.7 |
| 20260510152543 | 75 | 42 | 0.9 | 7.0 | 0.00 | 0.41 | 0.01 | 84 | 1014.7 |
| 20260510152041 | 75 | 98 | 2.6 | 7.0 | 0.00 | 0.41 | 0.01 | 85 | 1014.8 |
| 20260510151542 | 74 | 81 | 0.9 | 3.5 | 0.00 | 0.41 | 0.01 | 87 | 1014.7 |
| 20260510151037 | 74 | 180 | 0.0 | 3.5 | 0.00 | 0.41 | 0.01 | 88 | 1014.8 |
| 20260510150535 | 74 | 47 | 0.9 | 4.3 | 0.00 | 0.41 | 0.01 | 88 | 1014.8 |
| 20260510150035 | 73 | 69 | 0.9 | 4.3 | 0.00 | 0.41 | 0.01 | 89 | 1014.8 |
| 20260510145533 | 73 | 90 | 0.9 | 4.3 | 0.00 | 0.66 | 0.01 | 90 | 1014.9 |
| 20260510145030 | 72 | 102 | 0.9 | 3.5 | 0.00 | 0.66 | 0.01 | 91 | 1014.9 |
| 20260510144533 | 72 | 56 | 0.9 | 4.3 | 0.00 | 0.66 | 0.01 | 92 | 1014.9 |
| 20260510144028 | 71 | 53 | 1.7 | 4.3 | 0.00 | 0.66 | 0.01 | 94 | 1014.9 |
| 20260510143526 | 71 | 46 | 0.0 | 4.3 | 0.00 | 0.66 | 0.01 | 95 | 1015.0 |
| 20260510143025 | 71 | 44 | 0.9 | 4.3 | 0.00 | 0.66 | 0.01 | 96 | 1015.1 |
| 20260510142524 | 70 | 48 | 1.7 | 3.5 | 0.00 | 0.66 | 0.01 | 96 | 1015.1 |
| 20260510142024 | 70 | 9 | 0.9 | 2.6 | 0.00 | 0.66 | 0.01 | 96 | 1015.1 |
| 20260510141523 | 70 | 114 | 0.9 | 2.6 | 0.00 | 0.66 | 0.01 | 97 | 1015.1 |
| 20260510141023 | 69 | 125 | 0.0 | 1.7 | 0.00 | 0.66 | 0.01 | 97 | 1015.0 |
| 20260510140521 | 69 | 125 | 0.0 | 2.6 | 0.00 | 0.66 | 0.01 | 97 | 1015.0 |
| 20260510140019 | 69 | 129 | 0.0 | 2.6 | 0.00 | 0.66 | 0.01 | 97 | 1014.9 |
| 20260510135519 | 69 | 101 | 1.7 | 2.6 | 0.00 | 0.67 | 0.01 | 97 | 1014.9 |
| 20260510135018 | 68 | 65 | 0.0 | 1.7 | 0.00 | 0.67 | 0.01 | 97 | 1014.7 |
| 20260510134517 | 68 | 65 | 0.0 | 1.7 | 0.00 | 0.67 | 0.01 | 97 | 1014.8 |
| 20260510134017 | 68 | 65 | 0.0 | 1.7 | 0.00 | 0.67 | 0.01 | 97 | 1014.8 |
| 20260510133515 | 68 | 126 | 0.0 | 1.7 | 0.00 | 0.67 | 0.01 | 97 | 1014.8 |
| 20260510133015 | 67 | 41 | 0.0 | 1.7 | 0.00 | 0.67 | 0.01 | 97 | 1014.8 |
| 20260510132515 | 67 | 41 | 0.9 | 2.6 | 0.00 | 0.67 | 0.01 | 97 | 1014.7 |
| 20260510132015 | 67 | 41 | 0.9 | 3.5 | 0.00 | 0.67 | 0.01 | 97 | 1014.8 |
| 20260510131527 | 67 | 88 | 0.9 | 2.6 | 0.00 | 0.67 | 0.01 | 97 | 1014.8 |
| 20260510131011 | 67 | 101 | 0.9 | 3.5 | 0.00 | 0.67 | 0.01 | 97 | 1014.6 |
| 20260510130514 | 66 | 55 | 1.7 | 3.5 | 0.00 | 0.67 | 0.01 | 97 | 1014.7 |
| 20260510130010 | 66 | 44 | 0.9 | 2.6 | 0.00 | 0.67 | 0.01 | 97 | 1014.6 |
| 20260510125509 | 66 | 25 | 0.9 | 3.5 | 0.00 | 0.69 | 0.01 | 97 | 1014.6 |
| 20260510125007 | 66 | 42 | 1.7 | 3.5 | 0.00 | 0.69 | 0.01 | 97 | 1014.5 |
| 20260510124509 | 66 | 39 | 1.7 | 2.6 | 0.00 | 0.69 | 0.01 | 97 | 1014.4 |
| 20260510124007 | 66 | 71 | 0.9 | 2.6 | 0.00 | 0.69 | 0.01 | 97 | 1014.3 |
| 20260510123507 | 66 | 63 | 0.9 | 4.3 | 0.00 | 0.69 | 0.01 | 97 | 1014.2 |
| 20260510123007 | 66 | 62 | 1.7 | 4.3 | 0.00 | 0.69 | 0.01 | 97 | 1014.2 |
| 20260510122508 | 66 | 63 | 0.9 | 2.6 | 0.00 | 0.69 | 0.01 | 97 | 1014.1 |
| 20260510122003 | 65 | 36 | 0.9 | 1.7 | 0.00 | 0.69 | 0.01 | 97 | 1014.0 |
| 20260510121502 | 65 | 36 | 0.0 | 1.7 | 0.00 | 0.69 | 0.01 | 97 | 1013.9 |
| 20260510121002 | 65 | 36 | 0.0 | 1.7 | 0.00 | 0.69 | 0.01 | 97 | 1013.8 |
| 20260510120601 | 65 | 36 | 0.0 | 0.9 | 0.00 | 0.69 | 0.01 | 97 | 1013.6 |
| 20260510120058 | 65 | 36 | 0.9 | 1.7 | 0.00 | 0.69 | 0.01 | 97 | 1013.6 |
| 20260510115556 | 65 | 36 | 0.0 | 1.7 | 0.00 | 0.70 | 0.01 | 97 | 1013.5 |
| 20260510115056 | 65 | 36 | 0.0 | 1.7 | 0.00 | 0.70 | 0.01 | 97 | 1013.4 |
| 20260510114554 | 64 | 36 | 0.0 | 1.7 | 0.00 | 0.70 | 0.01 | 97 | 1013.3 |
| 20260510114052 | 64 | 36 | 0.0 | 1.7 | 0.00 | 0.70 | 0.01 | 97 | 1013.2 |
| 20260510113552 | 64 | 36 | 0.0 | 1.7 | 0.00 | 0.70 | 0.01 | 97 | 1013.1 |
| 20260510113058 | 64 | 36 | 0.0 | 1.7 | 0.00 | 0.70 | 0.01 | 96 | 1013.2 |
| 20260510112549 | 64 | 36 | 0.9 | 1.7 | 0.00 | 0.70 | 0.01 | 97 | 1013.1 |
| 20260510112048 | 64 | 36 | 0.0 | 1.7 | 0.00 | 0.70 | 0.01 | 97 | 1013.0 |
| 20260510111547 | 64 | 36 | 0.0 | 1.7 | 0.00 | 0.70 | 0.01 | 96 | 1013.1 |
| 20260510111045 | 64 | 36 | 0.0 | 0.9 | 0.00 | 0.70 | 0.01 | 96 | 1013.0 |
| 20260510110544 | 65 | 36 | 0.0 | 1.7 | 0.01 | 0.70 | 0.01 | 96 | 1012.9 |
| 20260510110043 | 65 | 36 | 0.0 | 1.7 | 0.01 | 0.70 | 0.01 | 96 | 1012.8 |
| 20260510105542 | 65 | 36 | 0.0 | 1.7 | 0.01 | 0.70 | 0.01 | 96 | 1012.7 |
| 20260510105042 | 65 | 36 | 0.0 | 1.7 | 0.01 | 0.70 | 0.01 | 96 | 1012.7 |
| 20260510104542 | 65 | 36 | 0.0 | 1.7 | 0.01 | 0.70 | 0.01 | 96 | 1012.7 |
| 20260510104040 | 65 | 36 | 0.0 | 1.7 | 0.01 | 0.70 | 0.01 | 96 | 1012.6 |
| 20260510103540 | 65 | 36 | 0.0 | 1.7 | 0.01 | 0.70 | 0.01 | 96 | 1012.5 |
| 20260510103039 | 65 | 36 | 0.0 | 1.7 | 0.01 | 0.70 | 0.01 | 96 | 1012.4 |
| 20260510102540 | 65 | 36 | 0.0 | 1.7 | 0.01 | 0.70 | 0.01 | 96 | 1012.4 |
| 20260510102038 | 65 | 36 | 0.0 | 0.9 | 0.01 | 0.70 | 0.01 | 96 | 1012.4 |
| 20260510101538 | 65 | 36 | 0.0 | 0.9 | 0.01 | 0.70 | 0.01 | 96 | 1012.3 |
| 20260510101038 | 65 | 36 | 0.0 | 1.7 | 0.01 | 0.70 | 0.01 | 96 | 1012.4 |
| 20260510100537 | 65 | 36 | 0.0 | 1.7 | 0.00 | 0.69 | 0.00 | 96 | 1012.3 |
| 20260510100035 | 65 | 36 | 0.0 | 1.7 | 0.00 | 0.69 | 0.00 | 96 | 1012.2 |
| 20260510095534 | 65 | 36 | 0.0 | 0.9 | 0.00 | 0.69 | 0.00 | 96 | 1012.1 |
| 20260510095033 | 65 | 36 | 0.0 | 0.0 | 0.00 | 0.69 | 0.00 | 96 | 1012.0 |
| 20260510094536 | 65 | 36 | 0.0 | 1.7 | 0.00 | 0.69 | 0.00 | 96 | 1011.9 |
| 20260510094032 | 65 | 36 | 0.0 | 1.7 | 0.00 | 0.69 | 0.00 | 96 | 1011.7 |
| 20260510093532 | 65 | 36 | 0.0 | 1.7 | 0.00 | 0.69 | 0.00 | 96 | 1011.7 |
| 20260510093032 | 65 | 36 | 0.0 | 0.0 | 0.00 | 0.69 | 0.00 | 96 | 1011.6 |
| 20260510092532 | 65 | 36 | 0.0 | 1.7 | 0.00 | 0.69 | 0.00 | 96 | 1011.7 |
| 20260510092031 | 66 | 36 | 0.0 | 1.7 | 0.00 | 0.69 | 0.00 | 96 | 1011.6 |
| 20260510091532 | 66 | 36 | 0.0 | 1.7 | 0.00 | 0.69 | 0.00 | 96 | 1011.6 |
| 20260510091030 | 66 | 36 | 0.0 | 1.7 | 0.00 | 0.69 | 0.00 | 96 | 1011.7 |
| 20260510090530 | 66 | 36 | 0.0 | 1.7 | 0.00 | 0.69 | 0.00 | 96 | 1011.5 |
| 20260510090029 | 66 | 36 | 0.0 | 1.7 | 0.00 | 0.69 | 0.00 | 96 | 1011.4 |
| 20260510085528 | 66 | 36 | 0.0 | 1.7 | 0.00 | 0.69 | 0.00 | 96 | 1011.4 |
| 20260510085028 | 66 | 36 | 0.0 | 1.7 | 0.00 | 0.69 | 0.00 | 96 | 1011.4 |
| 20260510084533 | 66 | 36 | 0.0 | 2.6 | 0.00 | 0.69 | 0.00 | 96 | 1011.5 |
| 20260510084028 | 66 | 36 | 0.9 | 2.6 | 0.00 | 0.69 | 0.00 | 96 | 1011.4 |
| 20260510083528 | 66 | 53 | 0.9 | 1.7 | 0.00 | 0.69 | 0.00 | 96 | 1011.3 |
| 20260510083028 | 66 | 318 | 0.0 | 1.7 | 0.00 | 0.69 | 0.00 | 96 | 1011.4 |
| 20260510082526 | 66 | 318 | 0.0 | 1.7 | 0.00 | 0.69 | 0.00 | 96 | 1011.3 |
| 20260510082026 | 66 | 318 | 0.0 | 1.7 | 0.00 | 0.69 | 0.00 | 96 | 1011.2 |
| 20260510081526 | 66 | 346 | 0.0 | 1.7 | 0.00 | 0.69 | 0.00 | 96 | 1011.2 |
| 20260510081026 | 66 | 346 | 0.0 | 1.7 | 0.00 | 0.69 | 0.00 | 96 | 1011.0 |
| 20260510080526 | 66 | 346 | 0.0 | 1.7 | 0.00 | 0.69 | 0.00 | 96 | 1010.8 |
| 20260510080031 | 66 | 346 | 0.0 | 0.9 | 0.00 | 0.69 | 0.00 | 96 | 1010.8 |
| 20260510075525 | 66 | 346 | 0.0 | 1.7 | 0.00 | 0.69 | 0.00 | 96 | 1010.8 |
| 20260510075025 | 66 | 71 | 0.9 | 0.9 | 0.00 | 0.69 | 0.00 | 96 | 1010.8 |
| 20260510074525 | 66 | 71 | 0.0 | 1.7 | 0.00 | 0.69 | 0.00 | 96 | 1010.8 |
| 20260510074025 | 66 | 71 | 0.0 | 1.7 | 0.00 | 0.69 | 0.00 | 96 | 1010.8 |
| 20260510073528 | 66 | 71 | 0.0 | 1.7 | 0.00 | 0.69 | 0.00 | 96 | 1010.7 |
| 20260510073028 | 66 | 71 | 0.0 | 1.7 | 0.00 | 0.69 | 0.00 | 96 | 1010.8 |
| 20260510072524 | 66 | 71 | 0.0 | 1.7 | 0.00 | 0.69 | 0.00 | 96 | 1010.8 |
| 20260510072025 | 66 | 71 | 0.0 | 0.9 | 0.00 | 0.69 | 0.00 | 96 | 1010.6 |
| 20260510071526 | 66 | 71 | 0.0 | 1.7 | 0.00 | 0.69 | 0.00 | 96 | 1010.8 |
| 20260510071023 | 67 | 71 | 0.0 | 1.7 | 0.00 | 0.69 | 0.00 | 96 | 1010.7 |
| 20260510070523 | 67 | 71 | 0.0 | 1.7 | 0.00 | 0.69 | 0.00 | 96 | 1010.6 |
| 20260510070023 | 67 | 71 | 0.0 | 1.7 | 0.00 | 0.69 | 0.00 | 96 | 1010.4 |
| 20260510065522 | 67 | 71 | 0.0 | 1.7 | 0.00 | 0.70 | 0.00 | 96 | 1010.5 |
| 20260510065022 | 67 | 71 | 0.0 | 1.7 | 0.00 | 0.70 | 0.00 | 96 | 1010.6 |
| 20260510064538 | 67 | 71 | 0.0 | 2.6 | 0.00 | 0.70 | 0.00 | 96 | 1010.6 |
| 20260510064021 | 67 | 71 | 0.9 | 2.6 | 0.00 | 0.70 | 0.00 | 96 | 1010.6 |
| 20260510063521 | 67 | 91 | 0.0 | 2.6 | 0.00 | 0.70 | 0.00 | 96 | 1010.6 |
| 20260510063025 | 67 | 117 | 0.0 | 2.6 | 0.00 | 0.70 | 0.00 | 96 | 1010.6 |
| 20260510062518 | 67 | 173 | 0.9 | 2.6 | 0.00 | 0.70 | 0.00 | 96 | 1010.7 |
| 20260510062018 | 66 | 168 | 0.0 | 1.7 | 0.00 | 0.70 | 0.00 | 96 | 1010.8 |
| 20260510061517 | 66 | 83 | 0.0 | 1.7 | 0.00 | 0.70 | 0.00 | 96 | 1011.0 |
| 20260510061017 | 66 | 311 | 0.0 | 1.7 | 0.00 | 0.70 | 0.00 | 96 | 1011.1 |
| 20260510060516 | 66 | 311 | 0.0 | 0.9 | 0.00 | 0.70 | 0.00 | 96 | 1011.1 |
| 20260510060015 | 66 | 311 | 0.0 | 0.0 | 0.00 | 0.70 | 0.00 | 96 | 1011.3 |
| 20260510055514 | 66 | 311 | 0.0 | 0.0 | 0.00 | 0.70 | 0.00 | 96 | 1011.3 |
| 20260510055014 | 66 | 311 | 0.0 | 1.7 | 0.00 | 0.70 | 0.00 | 96 | 1011.3 |
| 20260510054515 | 66 | 311 | 0.0 | 1.7 | 0.00 | 0.70 | 0.00 | 96 | 1011.3 |
| 20260510054013 | 66 | 310 | 0.0 | 0.9 | 0.00 | 0.70 | 0.00 | 96 | 1011.3 |
| 20260510053515 | 66 | 311 | 0.0 | 0.0 | 0.00 | 0.70 | 0.00 | 96 | 1011.5 |
| 20260510053031 | 67 | 311 | 0.0 | 1.7 | 0.00 | 0.70 | 0.00 | 96 | 1011.5 |
| 20260510052510 | 67 | 310 | 0.0 | 1.7 | 0.00 | 0.70 | 0.00 | 96 | 1011.7 |
| 20260510052010 | 67 | 310 | 0.0 | 1.7 | 0.00 | 0.70 | 0.00 | 96 | 1011.5 |
| 20260510051509 | 67 | 311 | 0.0 | 1.7 | 0.00 | 0.70 | 0.00 | 96 | 1011.6 |
| 20260510051012 | 67 | 310 | 0.0 | 0.9 | 0.00 | 0.70 | 0.00 | 96 | 1011.8 |
| 20260510050507 | 67 | 311 | 0.0 | 0.9 | 0.00 | 0.70 | 0.00 | 96 | 1011.7 |
| 20260510050007 | 67 | 311 | 0.0 | 1.7 | 0.00 | 0.70 | 0.00 | 96 | 1011.6 |
| 20260510045506 | 67 | 310 | 0.0 | 1.7 | 0.00 | 0.70 | 0.70 | 96 | 1011.5 |
| 20260510045007 | 67 | 310 | 0.0 | 1.7 | 0.00 | 0.70 | 0.70 | 96 | 1011.5 |
| 20260510044506 | 68 | 311 | 0.9 | 2.6 | 0.00 | 0.70 | 0.70 | 96 | 1011.4 |
| 20260510044006 | 68 | 107 | 0.0 | 3.5 | 0.00 | 0.70 | 0.70 | 96 | 1011.2 |
| 20260510043506 | 68 | 101 | 0.0 | 3.5 | 0.00 | 0.70 | 0.70 | 96 | 1011.1 |
| 20260510043006 | 68 | 90 | 0.9 | 3.5 | 0.00 | 0.70 | 0.70 | 96 | 1011.3 |
| 20260510042506 | 68 | 80 | 0.0 | 1.7 | 0.00 | 0.70 | 0.70 | 96 | 1011.7 |
| 20260510042005 | 68 | 80 | 0.0 | 1.7 | 0.00 | 0.70 | 0.70 | 96 | 1011.9 |
| 20260510041505 | 68 | 80 | 0.0 | 0.9 | 0.00 | 0.70 | 0.70 | 96 | 1012.0 |
| 20260510041005 | 68 | 80 | 0.0 | 0.9 | 0.00 | 0.70 | 0.70 | 96 | 1011.9 |
| 20260510040505 | 68 | 80 | 0.0 | 1.7 | 0.00 | 0.70 | 0.70 | 96 | 1011.8 |
| 20260510040004 | 68 | 80 | 0.0 | 1.7 | 0.00 | 0.70 | 0.70 | 96 | 1011.9 |
| 20260510035503 | 68 | 80 | 0.0 | 1.7 | 0.00 | 0.71 | 0.70 | 96 | 1012.1 |
| 20260510035005 | 68 | 80 | 0.0 | 1.7 | 0.00 | 0.71 | 0.70 | 96 | 1011.9 |
| 20260510034503 | 68 | 80 | 0.0 | 1.7 | 0.00 | 0.71 | 0.70 | 96 | 1011.9 |
| 20260510034004 | 68 | 80 | 0.0 | 1.7 | 0.01 | 0.71 | 0.70 | 96 | 1012.1 |
| 20260510033503 | 68 | 80 | 0.0 | 1.7 | 0.01 | 0.71 | 0.70 | 96 | 1012.2 |
| 20260510033003 | 68 | 80 | 0.0 | 1.7 | 0.01 | 0.71 | 0.70 | 96 | 1012.2 |
| 20260510032502 | 68 | 80 | 0.0 | 1.7 | 0.01 | 0.71 | 0.70 | 96 | 1012.0 |
| 20260510032004 | 68 | 80 | 0.0 | 1.7 | 0.01 | 0.71 | 0.70 | 96 | 1011.9 |
| 20260510031503 | 68 | 80 | 0.0 | 1.7 | 0.01 | 0.71 | 0.70 | 96 | 1011.8 |
| 20260510031003 | 68 | 80 | 0.0 | 1.7 | 0.01 | 0.71 | 0.70 | 96 | 1011.8 |
| 20260510030502 | 68 | 80 | 0.0 | 23.5 | 0.01 | 0.71 | 0.70 | 96 | 1011.8 |
| 20260510030003 | 68 | 80 | 0.0 | 0.9 | 0.01 | 0.71 | 0.70 | 96 | 1011.6 |
| 20260510025502 | 68 | 80 | 0.0 | 0.9 | 0.01 | 0.72 | 0.70 | 96 | 1011.6 |
| 20260510025001 | 68 | 80 | 0.0 | 1.7 | 0.01 | 0.72 | 0.70 | 96 | 1011.7 |
| 20260510024501 | 68 | 80 | 0.0 | 1.7 | 0.01 | 0.72 | 0.70 | 96 | 1011.5 |
| 20260510024001 | 68 | 80 | 0.0 | 2.6 | 0.00 | 0.71 | 0.69 | 96 | 1011.4 |
| 20260510023500 | 68 | 80 | 0.9 | 2.6 | 0.00 | 0.71 | 0.69 | 96 | 1011.2 |
| 20260510023001 | 68 | 88 | 0.9 | 1.7 | 0.00 | 0.71 | 0.69 | 96 | 1011.1 |
| 20260510022501 | 68 | 54 | 0.0 | 1.7 | 0.00 | 0.71 | 0.69 | 96 | 1011.3 |
| 20260510022100 | 68 | 54 | 0.0 | 1.7 | 0.00 | 0.71 | 0.69 | 96 | 1011.1 |
| 20260510021605 | 68 | 54 | 0.0 | 1.7 | 0.00 | 0.71 | 0.69 | 96 | 1011.3 |
| 20260510021100 | 68 | 26 | 0.0 | 1.7 | 0.00 | 0.71 | 0.69 | 96 | 1011.4 |
| 20260510020600 | 68 | 360 | 0.9 | 1.7 | 0.00 | 0.71 | 0.69 | 96 | 1011.5 |
| 20260510020059 | 68 | 360 | 0.0 | 1.7 | 0.00 | 0.71 | 0.69 | 96 | 1011.4 |
| 20260510015559 | 68 | 29 | 0.0 | 1.7 | 0.00 | 0.75 | 0.69 | 96 | 1011.3 |
| 20260510015058 | 68 | 231 | 0.0 | 1.7 | 0.01 | 0.75 | 0.69 | 96 | 1011.1 |
| 20260510014605 | 68 | 231 | 0.0 | 2.6 | 0.01 | 0.75 | 0.69 | 96 | 1011.1 |
| 20260510014058 | 68 | 109 | 0.0 | 2.6 | 0.01 | 0.75 | 0.69 | 96 | 1011.1 |
| 20260510013605 | 68 | 276 | 0.0 | 1.7 | 0.01 | 0.75 | 0.69 | 96 | 1011.2 |
| 20260510013128 | 68 | 276 | 0.0 | 1.7 | 0.01 | 0.75 | 0.69 | 96 | 1011.3 |
| 20260510012558 | 68 | 276 | 0.0 | 1.7 | 0.01 | 0.75 | 0.69 | 96 | 1011.4 |
| 20260510012058 | 68 | 276 | 0.0 | 1.7 | 0.01 | 0.75 | 0.69 | 96 | 1011.4 |
| 20260510011558 | 68 | 276 | 0.0 | 1.7 | 0.01 | 0.75 | 0.69 | 95 | 1011.4 |
| 20260510011058 | 68 | 276 | 0.0 | 1.7 | 0.01 | 0.75 | 0.69 | 96 | 1011.5 |
| 20260510010557 | 68 | 13 | 0.0 | 1.7 | 0.01 | 0.75 | 0.69 | 95 | 1011.5 |
| 20260510010057 | 68 | 13 | 0.0 | 1.7 | 0.01 | 0.75 | 0.69 | 95 | 1011.5 |
| 20260510005556 | 68 | 13 | 0.0 | 1.7 | 0.01 | 0.76 | 0.69 | 95 | 1011.6 |
| 20260510005058 | 68 | 13 | 0.0 | 0.9 | 0.00 | 0.75 | 0.69 | 95 | 1011.7 |
| 20260510004556 | 68 | 13 | 0.0 | 1.7 | 0.00 | 0.75 | 0.69 | 95 | 1011.7 |
| 20260510004055 | 68 | 13 | 0.0 | 1.7 | 0.01 | 0.75 | 0.69 | 95 | 1011.7 |
| 20260510003556 | 68 | 302 | 0.0 | 1.7 | 0.01 | 0.75 | 0.69 | 95 | 1011.6 |
| 20260510003105 | 68 | 5 | 0.0 | 1.7 | 0.01 | 0.75 | 0.69 | 95 | 1011.3 |
| 20260510002558 | 68 | 22 | 0.0 | 2.6 | 0.02 | 0.75 | 0.69 | 95 | 1011.2 |
| 20260510002100 | 68 | 49 | 0.9 | 2.6 | 0.02 | 0.75 | 0.69 | 95 | 1010.8 |
| 20260510001555 | 68 | 56 | 0.9 | 2.6 | 0.02 | 0.75 | 0.69 | 95 | 1010.3 |
| 20260510001056 | 68 | 82 | 1.7 | 2.6 | 0.02 | 0.75 | 0.69 | 95 | 1010.4 |
| 20260510000555 | 68 | 52 | 0.0 | 1.7 | 0.02 | 0.75 | 0.69 | 95 | 1010.4 |
| 20260510000118 | 68 | 83 | 0.9 | 5.2 | 0.02 | 0.75 | 0.69 | 95 | 1010.6 |
| 20260509235554 | 68 | 12 | 0.9 | 5.2 | 0.02 | 0.76 | 0.69 | 95 | 1010.6 |
| 20260509235054 | 68 | 44 | 3.5 | 7.0 | 0.02 | 0.76 | 0.69 | 94 | 1010.4 |
| 20260509234554 | 68 | 238 | 1.7 | 7.0 | 0.02 | 0.76 | 0.69 | 95 | 1009.4 |
| 20260509234053 | 69 | 173 | 0.9 | 7.8 | 0.02 | 0.76 | 0.68 | 95 | 1009.3 |
| 20260509233553 | 69 | 161 | 3.5 | 7.8 | 0.02 | 0.76 | 0.68 | 95 | 1009.4 |
| 20260509233054 | 69 | 139 | 0.9 | 3.5 | 0.02 | 0.76 | 0.68 | 95 | 1009.7 |
| 20260509232553 | 69 | 193 | 0.9 | 3.5 | 0.01 | 0.75 | 0.67 | 94 | 1009.9 |
| 20260509232055 | 69 | 97 | 0.0 | 3.5 | 0.01 | 0.75 | 0.67 | 94 | 1010.0 |
| 20260509231556 | 69 | 165 | 0.9 | 3.5 | 0.01 | 0.75 | 0.67 | 94 | 1010.2 |
| 20260509231053 | 69 | 94 | 0.0 | 1.7 | 0.01 | 0.75 | 0.67 | 94 | 1010.2 |
| 20260509230553 | 69 | 94 | 0.0 | 1.7 | 0.02 | 0.75 | 0.67 | 94 | 1010.3 |
| 20260509230057 | 70 | 94 | 0.0 | 1.7 | 0.01 | 0.74 | 0.66 | 94 | 1010.4 |
| 20260509225552 | 70 | 94 | 0.0 | 1.7 | 0.01 | 0.76 | 0.66 | 94 | 1010.5 |
| 20260509225052 | 70 | 94 | 0.0 | 1.7 | 0.01 | 0.76 | 0.66 | 94 | 1010.7 |
| 20260509224552 | 70 | 94 | 0.0 | 0.9 | 0.01 | 0.76 | 0.66 | 94 | 1010.7 |
| 20260509224053 | 70 | 94 | 0.0 | 1.7 | 0.01 | 0.76 | 0.66 | 94 | 1010.6 |
| 20260509223553 | 70 | 94 | 0.0 | 1.7 | 0.01 | 0.76 | 0.66 | 94 | 1010.7 |
| 20260509223100 | 69 | 94 | 0.0 | 1.7 | 0.01 | 0.76 | 0.66 | 93 | 1010.7 |
| 20260509222552 | 70 | 94 | 0.0 | 1.7 | 0.01 | 0.76 | 0.66 | 93 | 1010.6 |
| 20260509222051 | 70 | 94 | 0.0 | 1.7 | 0.01 | 0.76 | 0.66 | 93 | 1010.3 |
| 20260509221559 | 70 | 94 | 0.0 | 1.7 | 0.01 | 0.76 | 0.66 | 93 | 1010.3 |
| 20260509221052 | 70 | 94 | 0.0 | 1.7 | 0.01 | 0.76 | 0.66 | 93 | 1010.3 |
| 20260509220551 | 70 | 94 | 0.0 | 1.7 | 0.00 | 0.75 | 0.65 | 93 | 1010.1 |
| 20260509220050 | 70 | 5 | 0.0 | 1.7 | 0.00 | 0.75 | 0.65 | 93 | 1010.2 |
| 20260509215551 | 70 | 5 | 0.9 | 2.6 | 0.00 | 0.80 | 0.65 | 93 | 1010.5 |
| 20260509215151 | 70 | 5 | 0.9 | 2.6 | 0.00 | 0.80 | 0.65 | 93 | 1010.3 |
| 20260509214600 | 70 | 5 | 0.9 | 2.6 | 0.00 | 0.80 | 0.65 | 93 | 1010.6 |
| 20260509214050 | 70 | 321 | 0.0 | 2.6 | 0.00 | 0.80 | 0.65 | 93 | 1010.4 |
| 20260509213550 | 70 | 348 | 0.9 | 2.6 | 0.00 | 0.80 | 0.65 | 93 | 1010.2 |
| 20260509213050 | 70 | 335 | 0.9 | 2.6 | 0.00 | 0.80 | 0.65 | 92 | 1010.1 |
| 20260509212549 | 70 | 170 | 0.0 | 2.6 | 0.00 | 0.80 | 0.65 | 92 | 1009.8 |
| 20260509212049 | 70 | 169 | 0.0 | 1.7 | 0.00 | 0.80 | 0.65 | 92 | 1009.8 |
| 20260509211550 | 70 | 211 | 0.0 | 2.6 | 0.00 | 0.80 | 0.65 | 92 | 1010.1 |
| 20260509211049 | 70 | 188 | 0.0 | 2.6 | 0.00 | 0.80 | 0.65 | 92 | 1010.0 |
| 20260509210549 | 70 | 63 | 1.7 | 5.2 | 0.00 | 0.80 | 0.65 | 91 | 1010.3 |
| 20260509210050 | 70 | 107 | 2.6 | 5.2 | 0.00 | 0.80 | 0.65 | 91 | 1010.0 |
| 20260509205548 | 71 | 290 | 0.9 | 1.7 | 0.00 | 0.80 | 0.65 | 91 | 1010.5 |
| 20260509205047 | 70 | 290 | 0.0 | 1.7 | 0.00 | 0.80 | 0.65 | 90 | 1010.3 |
| 20260509204548 | 70 | 290 | 0.0 | 1.7 | 0.00 | 0.80 | 0.65 | 90 | 1010.3 |
| 20260509204047 | 71 | 149 | 0.0 | 1.7 | 0.00 | 0.80 | 0.65 | 90 | 1010.2 |
| 20260509203548 | 71 | 277 | 0.0 | 2.6 | 0.00 | 0.80 | 0.65 | 90 | 1010.5 |
| 20260509203047 | 71 | 332 | 0.0 | 2.6 | 0.00 | 0.80 | 0.65 | 90 | 1010.5 |
| 20260509202547 | 71 | 5 | 0.0 | 2.6 | 0.00 | 0.80 | 0.65 | 91 | 1010.0 |